#timestamp,LO_Frequency,Hit,StdDev 
1669024815.6,286047014.8,N
1669024835.4,286047016.9,P
1669024855.2,286047017.2,Y
1669024875.1,286047003.0,P
1669024876.0,286047003.0,N
1669024895.8,286047003.2,N
1669024915.7,286047004.0,N
1669024935.5,286047004.3,N
1669024955.3,286047004.1,N
1669024975.2,286047003.4,N
1669024995.9,286047006.0,N
1669025015.7,286047005.3,N
1669025035.6,286047004.6,N
1669025055.4,286047004.6,N
1669025075.3,286047007.6,N
1669025095.1,286047005.4,N
1669025096.0,286047005.4,N
1669025115.8,286047007.5,Y
1669025135.7,286047001.9,P
1669025155.5,286047002.2,N
1669025175.3,286047002.1,N
1669025195.2,286047001.8,N
1669025215.0,286047001.9,N
1669025215.9,286047001.9,N
1669025235.8,286047003.7,Y
1669025255.6,286047001.0,P
1669025275.4,286046999.9,N
1669025295.3,286047000.1,N
1669025315.1,286046999.8,N
1669025335.8,286046999.9,N
1669025355.7,286047002.0,N
1669025375.5,286047011.9,Y
1669025395.4,286046999.7,P
1669025415.2,286047002.3,P
1669025435.0,286047002.7,N
1669025435.9,286047002.7,N
1669025455.8,286047001.9,N
1669025475.6,286047011.9,Y
1669025495.5,286047005.4,P
1669025515.3,286047007.6,P
1669025535.1,286047006.8,N
1669025555.9,286047007.2,Y
1669025575.7,286047001.0,P
1669025595.5,286047000.1,N
1669025615.4,286047000.4,N
1669025635.2,286046999.9,N
1669025655.1,286047001.0,N
1669025656.0,286047001.0,N
1669025675.8,286047002.5,N
1669025695.6,286047001.4,N
1669025715.5,286047003.3,N
1669025735.3,286047004.1,N
1669025755.1,286047004.0,N
1669025775.9,286047003.5,N
1669025795.7,286047003.9,N
1669025815.6,286047006.0,Y
1669025835.4,286047001.8,P
1669025855.2,286047004.3,P
1669025875.1,286047002.0,N
1669025876.0,286047002.0,N
1669025895.8,286047002.7,N
1669025915.6,286047003.6,Y
1669025935.5,286047000.5,P
1669025955.3,286047000.0,N
1669025975.2,286047000.2,N
1669025995.9,286047001.9,N
1669026015.7,286047002.3,N
1669026035.6,286047002.6,N
1669026055.4,286047001.9,N
1669026075.2,286047001.4,N
1669026095.1,286047004.1,Y
1669026096.0,286047004.1,P
1669026115.8,286047002.7,N
1669026135.7,286047002.5,N
1669026155.5,286047001.7,N
1669026175.3,286047003.5,Y
1669026195.2,286047000.0,P
1669026215.0,286047001.8,N
1669026215.9,286047001.8,N
1669026235.8,286047003.0,Y
1669026255.6,286047004.2,P
1669026275.4,286047004.4,P
1669026295.3,286047002.8,N
1669026315.1,286047002.7,N
1669026335.8,286047002.7,N
1669026355.7,286047001.9,N
1669026375.5,286047001.9,N
1669026395.4,286047001.9,N
1669026415.2,286047004.1,Y
1669026435.0,286047001.3,P
1669026435.9,286047001.3,N
1669026455.8,286047003.8,P
1669026475.6,286047002.5,N
1669026495.4,286046999.5,N
1669026515.3,286046997.6,N
1669026535.1,286046993.7,Y
1669026555.9,286046995.7,P
1669026575.7,286046999.5,N
1669026595.5,286047000.1,N
1669026615.4,286047000.6,N
1669026635.2,286047001.3,N
1669026655.0,286047003.1,N
1669026655.9,286047003.1,N
1669026675.8,286047002.6,N
1669026695.6,286047001.2,N
1669026715.5,286047002.7,N
1669026735.3,286046999.0,N
1669026755.1,286046997.2,N
1669026775.9,286046997.7,N
1669026795.7,286046996.5,N
1669026815.5,286046993.6,N
1669026835.4,286046991.7,Y
1669026855.2,286046994.2,P
1669026875.1,286046994.9,N
1669026876.0,286046994.9,N
1669026895.8,286046996.9,N
1669026915.6,286046998.9,N
1669026935.5,286047002.3,N
1669026955.3,286047004.2,N
1669026975.1,286047002.5,N
1669026995.9,286047004.2,N
1669027015.7,286047001.5,N
1669027065.6,286047005.0,E
1669027075.5,286047003.2,N
1669027095.3,286047001.3,P
1669027115.2,286047001.5,N
1669027135.0,286047004.2,Y
1669027135.9,286047004.2,P
1669027155.8,286047002.8,N
1669027175.6,286047002.2,N
1669027195.4,286047002.4,N
1669027215.3,286047001.6,N
1669027235.1,286047002.5,N
1669027255.9,286047002.5,Y
1669027275.7,286046998.4,P
1669027295.5,286046999.5,N
1669027315.4,286046997.6,N
1669027335.2,286046995.5,N
1669027355.0,286046996.9,N
1669027355.9,286046996.9,N
1669027375.8,286046996.8,N
1669027395.6,286046999.5,N
1669027415.5,286046996.6,N
1669027435.3,286046998.9,N
1669027455.1,286047001.2,N
1669027475.9,286047000.5,N
1669027495.7,286046998.7,N
1669027515.5,286047000.5,N
1669027535.4,286047000.3,N
1669027555.2,286047001.0,N
1669027605.1,286046999.9,E
1669027615.0,286047000.0,N
1669027615.9,286047000.0,P
1669027635.7,286046998.5,P
1669027655.6,286046998.3,N
1669027675.4,286046998.1,N
1669027695.3,286046998.9,N
1669027715.1,286046996.5,Y
1669027716.0,286046996.5,P
1669027735.8,286046997.9,N
1669027755.7,286046997.2,N
1669027775.5,286046996.7,Y
1669027795.4,286047002.3,P
1669027815.2,286047001.9,N
1669027835.0,286047004.3,N
1669027835.9,286047004.3,N
1669027855.8,286047004.3,N
1669027875.6,286047003.9,N
1669027895.4,286047002.5,N
1669027915.3,286047003.7,N
1669027935.1,286047005.1,N
1669027955.9,286047007.6,Y
1669027975.7,286047001.5,P
1669027995.5,286047004.0,P
1669028015.4,286047003.1,N
1669028035.2,286047003.4,Y
1669028085.1,286047003.3,E
1669028095.9,286047001.4,N
1669028115.7,286047000.0,P
1669028135.6,286047000.2,N
1669028155.4,286047001.4,N
1669028175.2,286047001.5,N
1669028195.1,286047004.0,Y
1669028196.0,286047004.0,P
1669028215.8,286046999.8,N
1669028235.7,286047002.6,N
1669028255.5,286047002.4,N
1669028275.3,286046999.7,N
1669028295.2,286047001.9,N
1669028315.0,286047001.4,N
1669028315.9,286047001.4,N
1669028335.7,286047003.2,N
1669028355.6,286047005.9,Y
1669028375.4,286047001.6,P
1669028395.3,286047001.5,P
